Content
SEND FEEDBACK

Daily
Averages
Monthly
Summary
Canada

PRINCE RUPERT, BRITISH COLUMBIA


Home > North America > Canada > British Columbia
Elevation: 111 feet     Latitude: 54 17N     Longitude: 130 27W

WEATHER
 
SELECT A DAY
Number of Records: 355,535;   Date Range: 1/1/95 - 10/22/14
 
SHARE

PRINT THIS DATA

[ ← Previous Day ]
WEATHER ALMANAC - MARCH 17, 2013
[ Next Day → ]
[ °C ]   °F
Weather ElementAverageHighLow
Temperature35.6 °F41 °F (12:00 pm)33.8 °F (1:17 am)
Dewpoint33.8 °F37.4 °F (2:00 pm)30.2 °F (6:00 pm)
Humidity93.3 %100 % (1:17 am)70 % (6:00 pm)
Barometer29.99 in30.02 in (12:54 pm)29.96 in (1:00 am)
Wind Speed5 mph11.5 mph (5:28 am)
Wind Gust17.3 mph (7:00 pm)
Weather ElementAverage
Visibility7.5 mi
Wind DirectionSSE (148.3 °)

Weather ElementTotal
Precipitation---
Heating Degree Days27.6 (Base 65)
Averaged from 115 records on March 17, 2013
WEATHER CONDITIONS BREAKOUT
WIND DIRECTION BREAKOUT
WEATHER BY HOUR - MARCH 17, 2013
[ °C ]   °F
Local TimeTemperatureDewpointHumidityBarometerVisibilityWind DirectionWind SpeedGust SpeedPrecipitationEventsConditions
1:00 AM35.6 °F33.8 °F93 %29.96 in9.0 miNNW (340°)2.3 mphMostly Cloudy
1:03 AM35.6 °F33.8 °F93 %29.96 in9.0 miVariable2.3 mphRainLight Rain
1:09 AM35.6 °F33.8 °F93 %29.96 in5.0 miWNW (290°)10.4 mphRainLight Rain
1:12 AM35.6 °F33.8 °F93 %29.96 in3.0 miWNW (300°)8.1 mphRainLight Rain
1:13 AM35.6 °F33.8 °F93 %29.97 in2.5 miWNW (300°)6.9 mphRainRain
1:17 AM33.8 °F33.8 °F100 %29.97 in1.8 miNW (320°)4.6 mphRainLight Rain
1:20 AM33.8 °F33.8 °F100 %29.97 in1.8 miNNW (330°)5.8 mphRain-SnowLight Snow
1:25 AM33.8 °F33.8 °F100 %29.97 in1.8 miNNW (330°)4.6 mphSnowLight Snow
1:26 AM33.8 °F33.8 °F100 %29.97 in1.8 miNNW (330°)4.6 mphSnowLight Snow
1:30 AM35.6 °F33.8 °F93 %29.97 in2.0 miNorth (360°)3.5 mphSnowLight Snow
1:35 AM35.6 °F33.8 °F93 %29.97 in3.0 miNNE (20°)4.6 mphSnowLight Snow
1:37 AM35.6 °F33.8 °F93 %29.97 in6.0 miNNE (20°)4.6 mphSnowLight Snow
1:38 AM35.6 °F33.8 °F93 %29.97 in7.0 miNNE (30°)4.6 mphOvercast
1:42 AM35.6 °F33.8 °F93 %29.97 in9.0 miNE (50°)4.6 mphOvercast
1:47 AM35.6 °F33.8 °F93 %29.97 in9.0 miNE (40°)4.6 mphRainLight Rain
2:00 AM35.6 °F33.8 °F93 %29.97 in9.0 miENE (70°)4.6 mphRainLight Rain
2:24 AM33.8 °F33.8 °F100 %29.97 in7.0 miEast (90°)5.8 mphRainRain
2:35 AM33.8 °F33.8 °F100 %29.97 in9.0 miENE (60°)6.9 mphRainLight Rain
2:48 AM33.8 °F33.8 °F100 %29.97 in9.0 miENE (70°)4.6 mphMostly Cloudy
3:00 AM33.8 °F33.8 °F100 %29.97 in9.0 miVariable2.3 mphOvercast
3:04 AM33.8 °F33.8 °F100 %29.97 in9.0 miVariable2.3 mphOvercast
3:18 AM33.8 °F33.8 °F100 %29.98 in9.0 miEast (90°)5.8 mphRainLight Rain
3:32 AM33.8 °F33.8 °F100 %29.98 in4.0 miVariable2.3 mphRainLight Rain
3:36 AM35.6 °F33.8 °F93 %29.98 in2.5 miVariable5.8 mphRainRain
3:38 AM35.6 °F33.8 °F93 %29.98 in2.5 miVariable2.3 mphOvercast
3:41 AM35.6 °F33.8 °F93 %29.98 in3.0 miCalmOvercast
3:44 AM33.8 °F33.8 °F100 %29.98 in6.0 miVariable2.3 mphOvercast
3:46 AM33.8 °F33.8 °F100 %29.98 in9.0 miVariable3.5 mphRainLight Rain
3:51 AM33.8 °F33.8 °F100 %29.97 in9.0 miESE (110°)4.6 mphRainLight Rain
3:57 AM33.8 °F33.8 °F100 %29.97 in9.0 miESE (110°)4.6 mphOvercast
4:00 AM33.8 °F33.8 °F100 %29.97 in9.0 miESE (110°)4.6 mphOvercast
4:10 AM33.8 °F33.8 °F100 %29.97 in9.0 miEast (100°)4.6 mphRainLight Rain
4:12 AM33.8 °F33.8 °F100 %29.97 in9.0 miEast (90°)4.6 mphRainLight Rain
4:21 AM33.8 °F33.8 °F100 %29.97 in9.0 miEast (90°)5.8 mphOvercast
4:22 AM33.8 °F33.8 °F100 %29.97 in9.0 miEast (90°)4.6 mphOvercast
4:35 AM33.8 °F33.8 °F100 %29.97 in9.0 miVariable4.6 mphOvercast
4:38 AM33.8 °F33.8 °F100 %29.97 in9.0 miEast (100°)3.5 mphRainLight Rain
4:41 AM33.8 °F33.8 °F100 %29.97 in9.0 miVariable2.3 mphRainLight Rain
4:49 AM33.8 °F33.8 °F100 %29.97 in9.0 miNorth (10°)3.5 mphMostly Cloudy
5:00 AM35.6 °F33.8 °F93 %29.97 in9.0 miNE (50°)3.5 mphMostly Cloudy
5:08 AM33.8 °F33.8 °F100 %29.97 in9.0 miVariable2.3 mphMostly Cloudy
5:09 AM33.8 °F33.8 °F100 %29.97 in9.0 miVariable2.3 mphMostly Cloudy
5:10 AM33.8 °F33.8 °F100 %29.97 in9.0 miCalmMostly Cloudy
5:24 AM33.8 °F33.8 °F100 %29.97 in9.0 miVariable8.1 mphOvercast
5:25 AM33.8 °F33.8 °F100 %29.97 in9.0 miVariable10.4 mphMostly Cloudy
5:26 AM35.6 °F33.8 °F93 %29.97 in9.0 miVariable10.4 mphOvercast
5:28 AM35.6 °F33.8 °F93 %29.97 in8.0 miWest (280°)11.5 mphRainLight Rain
5:31 AM35.6 °F33.8 °F93 %29.97 in6.0 miWNW (290°)9.2 mphRainLight Rain
5:32 AM35.6 °F33.8 °F93 %29.98 in5.0 miWNW (300°)10.4 mphRainLight Rain
5:33 AM35.6 °F32.0 °F87 %29.97 in4.0 miWNW (300°)9.2 mphRainRain
5:39 AM35.6 °F33.8 °F93 %29.97 in3.0 miNW (310°)3.5 mphRain-SnowSnow
5:40 AM35.6 °F33.8 °F93 %29.97 in3.0 miNW (310°)4.6 mphRain-SnowSnow
5:44 AM35.6 °F33.8 °F93 %29.97 in6.0 miNW (320°)5.8 mphSnowLight Snow
5:46 AM35.6 °F33.8 °F93 %29.97 in9.0 miNW (320°)5.8 mphSnowLight Snow
5:48 AM35.6 °F33.8 °F93 %29.97 in9.0 miNNW (330°)4.6 mphOvercast
5:51 AM35.6 °F33.8 °F93 %29.97 in9.0 miNW (320°)4.6 mphOvercast
5:53 AM35.6 °F33.8 °F93 %29.97 in9.0 miNNW (330°)4.6 mphOvercast
5:59 AM35.6 °F33.8 °F93 %29.97 in9.0 miVariable2.3 mphMostly Cloudy
6:00 AM35.6 °F33.8 °F93 %29.97 in9.0 miVariable2.3 mphMostly Cloudy
6:02 AM35.6 °F33.8 °F93 %29.97 in9.0 miVariable3.5 mphMostly Cloudy
6:15 AM35.6 °F33.8 °F93 %29.97 in9.0 miNorth (360°)8.1 mphRainLight Rain
7:00 AM35.6 °F32.0 °F87 %29.98 in9.0 miWest (260°)5.8 mphRainLight Rain
7:11 AM35.6 °F32.0 °F87 %29.98 in9.0 miWest (260°)4.6 mphMostly Cloudy
8:00 AM35.6 °F33.8 °F93 %29.99 in9.0 miNorth (10°)8.1 mphOvercast
9:00 AM33.8 °F32.0 °F93 %30.00 in9.0 miNE (40°)4.6 mphClear
10:00 AM37.4 °F33.8 °F87 %30.00 in9.0 miEast (80°)8.1 mphClear
11:00 AM37.4 °F32.0 °F81 %30.01 in9.0 miVariable2.3 mphMostly Cloudy
11:50 AM39.2 °F33.8 °F81 %30.01 in9.0 miSSW (200°)3.5 mphMostly Cloudy
12:00 PM41.0 °F35.6 °F81 %30.01 in9.0 miSSE (160°)4.6 mphMostly Cloudy
12:04 PM41.0 °F33.8 °F76 %30.01 in9.0 miSouth (170°)6.9 mphMostly Cloudy
12:35 PM39.2 °F33.8 °F81 %30.01 in9.0 miENE (60°)6.9 mphMostly Cloudy
12:38 PM39.2 °F35.6 °F87 %30.01 in9.0 miEast (90°)8.1 mphRainLight Rain
12:51 PM35.6 °F33.8 °F93 %30.01 in3.0 miNorth (10°)4.6 mphRainRain
12:54 PM35.6 °F33.8 °F93 %30.02 in2.2 miNNE (20°)3.5 mphRainRain
12:55 PM35.6 °F33.8 °F93 %30.02 in2.2 miNNE (30°)4.6 mphOvercast
1:00 PM35.6 °F33.8 °F93 %30.02 in2.0 miENE (60°)3.5 mphOvercast
1:03 PM35.6 °F33.8 °F93 %30.02 in3.0 miENE (60°)3.5 mphOvercast
1:10 PM35.6 °F33.8 °F93 %30.02 in3.0 miCalmOvercast
1:15 PM35.6 °F33.8 °F93 %30.02 in3.0 miVariable2.3 mphRainLight Rain
1:22 PM37.4 °F35.6 °F93 %30.02 in6.0 miVariable4.6 mphRainLight Rain
1:31 PM39.2 °F35.6 °F87 %30.02 in9.0 miVariable2.3 mphOvercast
1:42 PM39.2 °F35.6 °F87 %30.02 in9.0 miSSW (200°)6.9 mphScattered Clouds
2:00 PM41.0 °F37.4 °F87 %30.02 in9.0 miSW (220°)4.6 mphClear
3:00 PM41.0 °F35.6 °F81 %30.02 in9.0 miSouth (180°)5.8 mphPartly Cloudy
4:00 PM39.2 °F35.6 °F87 %30.02 in9.0 miSouth (190°)6.9 mphClear
4:39 PM39.2 °F35.6 °F87 %30.02 in9.0 miSW (220°)5.8 mphRainLight Rain
4:41 PM39.2 °F35.6 °F87 %30.01 in9.0 miSW (230°)5.8 mphRainLight Rain
4:48 PM37.4 °F35.6 °F93 %30.01 in9.0 miSSW (210°)8.1 mphRainLight Rain
4:49 PM37.4 °F33.8 °F87 %30.01 in9.0 miSW (220°)6.9 mphScattered Clouds
5:00 PM39.2 °F35.6 °F87 %30.01 in9.0 miSSW (210°)5.8 mphPartly Cloudy
5:34 PM39.2 °F32.0 °F75 %30.01 in9.0 miSW (220°)4.6 mphMostly Cloudy
5:47 PM39.2 °F32.0 °F75 %30.01 in9.0 miWest (270°)3.5 mphMostly Cloudy
6:00 PM39.2 °F30.2 °F70 %30.00 in9.0 miWNW (290°)4.6 mphMostly Cloudy
7:00 PM37.4 °F33.8 °F87 %30.00 in9.0 miWest (260°)10.4 mph17.3 mphMostly Cloudy
7:47 PM35.6 °F33.8 °F93 %29.99 in9.0 miSW (230°)8.1 mphRainLight Rain
8:00 PM33.8 °F33.8 °F100 %29.99 in9.0 miSSW (200°)8.1 mphRain-SnowLight Snow
8:05 PM33.8 °F33.8 °F100 %29.99 in9.0 miSSW (210°)5.8 mphSnowLight Snow
8:08 PM33.8 °F33.8 °F100 %30.00 in9.0 miSSW (200°)6.9 mphSnowLight Snow
8:12 PM35.6 °F33.8 °F93 %30.00 in9.0 miSSW (210°)6.9 mphRain-SnowLight Snow
8:13 PM35.6 °F33.8 °F93 %30.00 in9.0 miSSW (210°)5.8 mphRainLight Rain
8:17 PM35.6 °F33.8 °F93 %30.00 in9.0 miWSW (240°)5.8 mphRainLight Rain
8:31 PM33.8 °F33.8 °F100 %30.00 in9.0 miSW (220°)3.5 mphMostly Cloudy
9:00 PM35.6 °F33.8 °F93 %30.01 in9.0 miSW (230°)3.5 mphOvercast
9:08 PM35.6 °F32.0 °F87 %30.01 in9.0 miWest (270°)5.8 mphOvercast
9:20 PM35.6 °F33.8 °F93 %30.01 in9.0 miWSW (240°)4.6 mphRainLight Rain
9:25 PM35.6 °F32.0 °F87 %30.01 in9.0 miSW (230°)3.5 mphRainLight Rain
9:41 PM33.8 °F32.0 °F93 %30.01 in9.0 miSW (230°)4.6 mphMostly Cloudy
9:45 PM33.8 °F33.8 °F100 %30.01 in9.0 miWSW (240°)3.5 mphRainLight Rain
9:46 PM33.8 °F33.8 °F100 %30.01 in9.0 miWSW (250°)3.5 mphRainLight Rain
9:50 PM33.8 °F32.0 °F93 %30.01 in9.0 miWSW (240°)4.6 mphRainLight Rain
10:00 PM33.8 °F32.0 °F93 %30.01 in9.0 miVariable2.3 mphRainLight Rain
10:26 PM33.8 °F33.8 °F100 %30.01 in9.0 miWest (260°)5.8 mphOvercast
10:34 PM33.8 °F33.8 °F100 %30.02 in9.0 miWest (260°)5.8 mphRainLight Rain
10:50 PM33.8 °F33.8 °F100 %30.02 in9.0 miSouth (180°)3.5 mphScattered Clouds
11:00 PM33.8 °F32.0 °F93 %30.02 in9.0 miSSW (210°)3.5 mphPartly Cloudy
Hourly data recorded from CYPR, located miles away from Prince Rupert, British Columbia







STORIES FROM OUR PARTNERS